Torna al catalogo

FENGYUN 1C DEB

AttivoSSO
NORAD 30906·DEBRIS·🇨🇳 China

Lanciato May 10, 1999 da Taiyuan Satellite Launch Center

Loading…

Prossimi Passaggi (prossime 24 ore)

TLE

AggiornatoSource: Space-Track

Epoca: Sep 14, 2026, 05:12 UTC

1 30906U 99025AYU 26257.21691280  .00000960  00000-0  46825-3 0  9997
2 30906  99.1777 256.8107 0075482 189.3236 170.6542 14.19091793679840

Traccia FENGYUN 1C DEB in tempo reale con AllMySat

Download on the App Store